| time (UTC) | temp F | wind direction | speed knots | gust knots | rain 1hr in | rain 24hr in | rain mn in | humidity % | barometer mb |
| 20260905080059 | 81 | 161 | 0.0 | 0.0 | 0.00 | 0.00 | 0.00 | 76 | 1011.1 |
| 20260905074554 | 81 | 161 | 0.0 | 0.0 | 0.00 | 0.00 | 0.00 | 75 | 1011.1 |
| 20260905073052 | 81 | 161 | 0.0 | 0.0 | 0.00 | 0.00 | 0.00 | 74 | 1011.2 |
| 20260905071558 | 81 | 161 | 0.0 | 0.0 | 0.00 | 0.00 | 0.00 | 74 | 1011.7 |
| 20260905070049 | 81 | 161 | 0.0 | 0.0 | 0.00 | 0.00 | 0.00 | 74 | 1011.7 |
| 20260905064554 | 81 | 161 | 0.0 | 0.0 | 0.00 | 0.00 | 0.00 | 73 | 1011.7 |
| 20260905063047 | 81 | 161 | 0.0 | 0.0 | 0.00 | 0.00 | 0.00 | 72 | 1011.7 |
| 20260905061605 | 82 | 161 | 0.0 | 0.0 | 0.00 | 0.00 | 0.00 | 72 | 1011.6 |
| 20260905060042 | 82 | 161 | 0.0 | 0.0 | 0.00 | 0.00 | 0.00 | 71 | 1011.8 |
| 20260905054540 | 82 | 161 | 0.0 | 0.0 | 0.00 | 0.00 | 0.00 | 70 | 1011.7 |
| 20260905053038 | 83 | 162 | 0.0 | 0.0 | 0.00 | 0.00 | 0.00 | 69 | 1011.7 |
| 20260905051542 | 83 | 146 | 0.0 | 0.0 | 0.00 | 0.00 | 0.00 | 68 | 1011.6 |
| 20260905050033 | 83 | 117 | 0.0 | 4.3 | 0.00 | 0.00 | 0.00 | 67 | 1011.7 |
| 20260905044531 | 84 | 146 | 0.0 | 2.6 | 0.00 | 0.00 | 0.00 | 65 | 1011.7 |
| 20260905043057 | 84 | 157 | 0.0 | 5.2 | 0.00 | 0.00 | 0.00 | 63 | 1011.9 |
| 20260905041530 | 85 | 131 | 0.0 | 4.3 | 0.00 | 0.00 | 0.00 | 61 | 1011.7 |
| 20260905040033 | 85 | 175 | 0.0 | 1.7 | 0.00 | 0.00 | 0.00 | 58 | 1011.6 |
| 20260905034531 | 85 | 117 | 0.0 | 0.9 | 0.00 | 0.00 | 0.00 | 56 | 1011.6 |
| 20260905033029 | 85 | 113 | 0.0 | 0.0 | 0.00 | 0.00 | 0.00 | 56 | 1011.4 |
| 20260905031529 | 85 | 112 | 0.0 | 0.0 | 0.00 | 0.00 | 0.00 | 56 | 1011.2 |
| 20260905030028 | 85 | 113 | 0.0 | 0.0 | 0.00 | 0.00 | 0.00 | 56 | 1011.1 |
| 20260905024527 | 85 | 109 | 0.0 | 0.0 | 0.00 | 0.00 | 0.00 | 56 | 1010.9 |
| 20260905023027 | 86 | 103 | 0.0 | 0.0 | 0.00 | 0.00 | 0.00 | 55 | 1010.8 |
| 20260905021532 | 86 | 96 | 0.0 | 0.9 | 0.00 | 0.00 | 0.00 | 54 | 1010.4 |
| 20260905020025 | 87 | 97 | 0.0 | 0.0 | 0.00 | 0.00 | 0.00 | 54 | 1010.2 |
| 20260905014524 | 87 | 98 | 0.0 | 1.7 | 0.00 | 0.00 | 0.00 | 53 | 1010.3 |
| 20260905013024 | 88 | 55 | 0.0 | 0.9 | 0.00 | 0.00 | 0.00 | 52 | 1010.1 |
| 20260905011523 | 88 | 92 | 0.0 | 1.7 | 0.00 | 0.00 | 0.00 | 51 | 1009.9 |
| 20260905010022 | 89 | 96 | 0.0 | 3.5 | 0.00 | 0.00 | 0.00 | 49 | 1009.8 |
| 20260905004521 | 90 | 113 | 0.9 | 6.1 | 0.00 | 0.00 | 0.00 | 47 | 1009.7 |
| 20260905003023 | 91 | 74 | 0.0 | 0.0 | 0.00 | 0.00 | 0.00 | 45 | 1009.4 |
| 20260905001527 | 92 | 82 | 0.0 | 0.9 | 0.00 | 0.00 | 0.00 | 44 | 1009.2 |
| 20260905000030 | 92 | 107 | 0.0 | 1.7 | 0.00 | 0.00 | 0.00 | 44 | 1009.0 |
| 20260904234518 | 92 | 100 | 0.0 | 1.7 | 0.00 | 0.00 | 0.00 | 45 | 1009.0 |
| 20260904233017 | 91 | 109 | 0.0 | 3.5 | 0.00 | 0.00 | 0.00 | 47 | 1008.9 |
| 20260904231516 | 91 | 109 | 0.0 | 2.6 | 0.00 | 0.00 | 0.00 | 47 | 1009.1 |
| 20260904230014 | 92 | 83 | 0.0 | 0.9 | 0.00 | 0.00 | 0.00 | 47 | 1009.2 |
| 20260904224521 | 92 | 75 | 0.0 | 5.2 | 0.00 | 0.00 | 0.00 | 48 | 1009.2 |
| 20260904223014 | 93 | 81 | 0.0 | 3.5 | 0.00 | 0.00 | 0.00 | 49 | 1009.2 |
| 20260904221507 | 91 | 101 | 0.0 | 3.5 | 0.00 | 0.00 | 0.00 | 50 | 1009.4 |
| 20260904220005 | 90 | 79 | 0.0 | 0.0 | 0.00 | 0.00 | 0.00 | 53 | 1009.7 |
| 20260904214503 | 89 | 51 | 0.0 | 2.6 | 0.00 | 0.00 | 0.00 | 55 | 1009.9 |
| 20260904213059 | 88 | 50 | 0.0 | 1.7 | 0.00 | 0.00 | 0.00 | 59 | 1010.0 |
| 20260904211611 | 87 | 40 | 0.0 | 0.9 | 0.00 | 0.00 | 0.00 | 61 | 1010.2 |
| 20260904210056 | 87 | 23 | 0.0 | 3.5 | 0.00 | 0.00 | 0.00 | 62 | 1010.4 |
| 20260904204555 | 89 | 92 | 0.0 | 0.0 | 0.00 | 0.00 | 0.00 | 59 | 1010.5 |
| 20260904203156 | 89 | 96 | 0.0 | 0.0 | 0.00 | 0.00 | 0.00 | 56 | 1010.6 |
| 20260904201554 | 89 | 96 | 0.0 | 0.0 | 0.00 | 0.00 | 0.00 | 57 | 1010.7 |
| 20260904200054 | 89 | 111 | 0.0 | 1.7 | 0.00 | 0.00 | 0.00 | 56 | 1010.8 |
| 20260904194553 | 89 | 146 | 0.0 | 0.0 | 0.00 | 0.00 | 0.00 | 55 | 1010.8 |
| 20260904193058 | 89 | 175 | 0.0 | 0.9 | 0.00 | 0.00 | 0.00 | 58 | 1010.9 |
| 20260904191554 | 90 | 175 | 0.0 | 0.0 | 0.00 | 0.00 | 0.00 | 56 | 1011.2 |
| 20260904190052 | 90 | 61 | 0.0 | 2.6 | 0.00 | 0.00 | 0.00 | 56 | 1011.3 |
| 20260904184556 | 90 | 109 | 0.0 | 3.5 | 0.00 | 0.00 | 0.00 | 56 | 1011.3 |
| 20260904183054 | 90 | 55 | 0.0 | 3.5 | 0.00 | 0.00 | 0.00 | 56 | 1011.5 |
| 20260904181547 | 90 | 109 | 0.0 | 0.0 | 0.00 | 0.00 | 0.00 | 58 | 1011.7 |
| 20260904180106 | 89 | 182 | 0.0 | 4.3 | 0.00 | 0.00 | 0.00 | 59 | 1011.8 |
| 20260904174550 | 89 | 197 | 0.0 | 1.7 | 0.00 | 0.00 | 0.00 | 61 | 1011.9 |
| 20260904173044 | 88 | 196 | 0.0 | 2.6 | 0.00 | 0.00 | 0.00 | 62 | 1012.2 |
| 20260904171540 | 87 | 108 | 0.0 | 1.7 | 0.00 | 0.00 | 0.00 | 64 | 1012.4 |
| 20260904170046 | 87 | 110 | 0.0 | 4.3 | 0.00 | 0.00 | 0.00 | 64 | 1012.6 |
| 20260904164536 | 87 | 172 | 0.0 | 3.5 | 0.00 | 0.00 | 0.00 | 64 | 1012.6 |
| 20260904163034 | 87 | 155 | 0.0 | 5.2 | 0.00 | 0.00 | 0.00 | 65 | 1012.5 |
| 20260904161533 | 86 | 173 | 1.7 | 6.1 | 0.00 | 0.00 | 0.00 | 67 | 1012.6 |
| 20260904160029 | 86 | 146 | 0.0 | 0.9 | 0.00 | 0.00 | 0.00 | 69 | 1012.6 |
| 20260904154530 | 85 | 135 | 0.0 | 0.9 | 0.00 | 0.00 | 0.00 | 70 | 1012.5 |
| 20260904153025 | 85 | 140 | 0.0 | 1.7 | 0.00 | 0.00 | 0.00 | 71 | 1012.4 |
| 20260904151521 | 84 | 154 | 0.0 | 4.3 | 0.00 | 0.00 | 0.00 | 73 | 1012.3 |
| 20260904150030 | 83 | 180 | 0.0 | 3.5 | 0.00 | 0.00 | 0.00 | 74 | 1012.2 |
| 20260904144518 | 83 | 174 | 0.0 | 2.6 | 0.00 | 0.00 | 0.00 | 76 | 1012.2 |
| 20260904143018 | 82 | 164 | 0.0 | 4.3 | 0.00 | 0.00 | 0.00 | 77 | 1012.2 |
| 20260904141530 | 81 | 196 | 0.0 | 0.0 | 0.00 | 0.00 | 0.00 | 78 | 1012.2 |
| 20260904140036 | 81 | 157 | 0.0 | 0.0 | 0.00 | 0.00 | 0.00 | 79 | 1012.2 |
| 20260904134516 | 80 | 98 | 0.0 | 0.0 | 0.00 | 0.00 | 0.00 | 79 | 1012.0 |
| 20260904133015 | 80 | 80 | 0.0 | 0.0 | 0.00 | 0.00 | 0.00 | 79 | 1012.1 |
| 20260904131512 | 79 | 115 | 0.0 | 0.0 | 0.00 | 0.00 | 0.00 | 80 | 1012.1 |
| 20260904130008 | 79 | 115 | 0.0 | 0.0 | 0.00 | 0.00 | 0.00 | 79 | 1011.8 |
| 20260904124509 | 79 | 117 | 0.0 | 0.0 | 0.00 | 0.00 | 0.00 | 79 | 1011.7 |
| 20260904123007 | 79 | 120 | 0.0 | 0.0 | 0.00 | 0.00 | 0.00 | 79 | 1011.7 |
| 20260904121507 | 79 | 131 | 0.0 | 0.0 | 0.00 | 0.00 | 0.00 | 79 | 1011.5 |
| 20260904120009 | 79 | 167 | 0.0 | 0.0 | 0.00 | 0.00 | 0.00 | 79 | 1011.3 |
| 20260904114506 | 79 | 167 | 0.0 | 0.0 | 0.00 | 0.00 | 0.00 | 78 | 1011.2 |
| 20260904113008 | 79 | 169 | 0.0 | 0.0 | 0.00 | 0.00 | 0.00 | 78 | 1010.9 |
| 20260904111501 | 79 | 169 | 0.0 | 0.0 | 0.00 | 0.00 | 0.00 | 78 | 1010.8 |
| 20260904110001 | 79 | 169 | 0.0 | 0.0 | 0.00 | 0.00 | 0.00 | 78 | 1010.9 |
| 20260904104501 | 79 | 177 | 0.0 | 0.0 | 0.00 | 0.00 | 0.00 | 78 | 1010.6 |
| 20260904103100 | 79 | 177 | 0.0 | 0.0 | 0.00 | 0.00 | 0.00 | 78 | 1010.6 |
| 20260904101607 | 78 | 177 | 0.0 | 0.0 | 0.00 | 0.00 | 0.00 | 77 | 1010.7 |
| 20260904094558 | 78 | 177 | 0.0 | 0.0 | 0.00 | 0.00 | 0.00 | 76 | 1010.5 |
| 20260904093058 | 78 | 177 | 0.0 | 0.0 | 0.00 | 0.00 | 0.00 | 75 | 1010.5 |
| 20260904091556 | 78 | 177 | 0.0 | 0.0 | 0.00 | 0.00 | 0.00 | 75 | 1010.4 |
| 20260904090055 | 79 | 177 | 0.0 | 0.0 | 0.00 | 0.00 | 0.00 | 75 | 1010.5 |
| 20260904084553 | 79 | 177 | 0.0 | 0.0 | 0.00 | 0.00 | 0.00 | 75 | 1010.5 |
| 20260904083059 | 79 | 177 | 0.0 | 0.0 | 0.00 | 0.00 | 0.00 | 75 | 1010.5 |
| 20260904081550 | 79 | 177 | 0.0 | 0.0 | 0.00 | 0.00 | 0.00 | 74 | 1010.5 |